Stations météo

réclame
Mon MeteoGroup
Culdrose, Grande-Bretagne (3809): Température de l'air & dewpoint: 08.08.2020 21:00:00 - 14.08.2020 21:00:00 (BST)Culdrose, Grande-Bretagne (3809): Vitesse du vent & gusts: 08.08.2020 21:00:00 - 14.08.2020 21:00:00 (BST)Culdrose, Grande-Bretagne (3809): Direction du vent: 08.08.2020 21:00:00 - 14.08.2020 21:00:00 (BST)Culdrose, Grande-Bretagne (3809): reduced air pressure: 08.08.2020 21:00:00 - 14.08.2020 21:00:00 (BST)Culdrose, Grande-Bretagne (3809): visibility: 08.08.2020 21:00:00 - 14.08.2020 21:00:00 (BST)Culdrose, Grande-Bretagne (3809): Quantités de précipitations: 08.08.2020 21:00:00 - 14.08.2020 21:00:00 (BST)
Date & Time tt [°C] td [°C] ff [km/h] ff [knt] fx [km/h] fx [knt] dd ppp [hPa] vv [km] rr [mm]
14.08.2020 21:00:00 17,5 16,8 15 8 - - W 1015,7 10 -
14.08.2020 20:00:00 17,6 17,1 13 7 - - WNW 1015,5 10 0,2
14.08.2020 19:00:00 17,2 17,0 21 11 - - W 1015,4 8 0,0
14.08.2020 18:00:00 17,6 17,2 15 8 - - W 1015,3 1,0 0,0
14.08.2020 17:00:00 18,3 17,4 16 9 - - W 1015,1 11 0,0
14.08.2020 16:00:00 19,1 17,4 15 8 - - W 1015,1 16 0,0
14.08.2020 15:00:00 19,3 17,5 13 7 - - WSW 1015,1 16 0,0
14.08.2020 14:00:00 19,2 17,4 11 6 - - WSW 1015,3 10 0,0
14.08.2020 13:00:00 18,7 17,4 13 7 - - W 1015,2 14 0,0
14.08.2020 12:00:00 17,9 16,8 11 6 - - SW 1015,1 10 0,0
14.08.2020 11:00:00 18,0 17,6 11 6 - - WNW 1014,8 10 0,0
14.08.2020 10:00:00 17,4 17,2 11 6 - - W 1014,5 3,0 0,0
14.08.2020 09:00:00 17,4 17,4 8 4 - - WSW 1014,0 2,8 0,0
14.08.2020 08:00:00 17,3 17,2 5 3 - - W 1013,8 3,0 0,0
14.08.2020 07:00:00 17,0 16,9 8 4 - - W 1013,9 3,0 0,0
14.08.2020 06:00:00 17,1 17,1 13 7 - - W 1013,7 1,3 0,0
14.08.2020 05:00:00 17,3 17,3 11 6 - - W 1013,4 0,6 0,0
14.08.2020 04:00:00 17,5 17,4 9 5 - - W 1013,5 0,6 0,0
14.08.2020 03:00:00 17,5 17,5 8 4 - - WNW 1013,7 0,9 0,0
14.08.2020 02:00:00 17,4 17,2 8 4 - - WNW 1013,7 0,5 0,0
14.08.2020 01:00:00 17,4 17,2 9 5 - - NW 1013,7 0,5 0,0
14.08.2020 00:00:00 17,7 17,4 9 5 - - NW 1013,8 1,2 0,0
13.08.2020 23:00:00 17,9 17,6 8 4 - - NNW 1013,8 4,9 0,0
13.08.2020 22:00:00 17,7 17,2 5 3 - - WSW 1013,5 6 0,0
13.08.2020 21:00:00 17,6 17,0 11 6 - - WSW 1013,1 8 0,0
13.08.2020 20:00:00 17,9 17,1 9 5 - - W 1013,1 10 0,0
13.08.2020 19:00:00 18,0 17,0 13 7 - - SW 1012,8 12 0,0
13.08.2020 18:00:00 18,4 16,8 11 6 - - SW 1012,7 15 0,0
13.08.2020 17:00:00 21,0 18,0 11 6 - - WSW 1012,4 23 0,0
13.08.2020 16:00:00 22,3 17,9 11 6 - - S 1012,2 10 0,0
13.08.2020 15:00:00 22,1 18,7 9 5 - - WSW 1012,3 10 0,0
13.08.2020 14:00:00 21,4 18,4 8 4 - - E 1012,7 5 0,0
13.08.2020 13:00:00 19,8 18,8 4 2 - - WNW 1012,6 2,0 0,0
13.08.2020 12:00:00 19,0 18,4 5 3 - - SSW 1012,5 1,7 0,0
13.08.2020 11:00:00 18,6 18,4 5 3 - - SSE 1012,3 1,2 0,0
13.08.2020 10:00:00 18,7 18,7 9 5 - - SSE 1011,9 1,0 0,0
13.08.2020 09:00:00 18,2 18,2 11 6 - - SE 1011,9 1,2 0,0
13.08.2020 08:00:00 17,6 17,6 9 5 - - ESE 1011,5 0,4 0,2
13.08.2020 07:00:00 17,6 17,6 9 5 - - ESE 1011,3 0,2 0,8
13.08.2020 06:00:00 17,6 17,6 22 12 - - ESE 1011,3 0,4 0,2
13.08.2020 05:00:00 17,6 17,6 16 9 - - ESE 1010,9 0,3 0,0
13.08.2020 04:00:00 17,8 17,6 15 8 - - ESE 1011,2 0,4 0,0
13.08.2020 03:00:00 18,0 17,8 13 7 - - ESE 1011,4 0,5 0,0
13.08.2020 02:00:00 18,3 18,0 15 8 - - SE 1011,2 0,3 0,0
13.08.2020 01:00:00 18,8 18,4 15 8 - - ESE 1011,5 3,2 0,0
13.08.2020 00:00:00 19,2 18,8 13 7 - - ESE 1011,4 1,6 0,0
12.08.2020 23:00:00 19,5 18,9 21 11 - - ENE 1011,5 2,2 0,0
12.08.2020 22:00:00 19,7 18,7 15 8 - - ENE 1011,7 3,4 0,0
12.08.2020 21:00:00 20,2 18,3 5 3 - - NE 1011,4 6 0,0
12.08.2020 20:00:00 20,9 18,2 16 9 - - E 1011,1 8 0,0
12.08.2020 19:00:00 22,3 18,9 15 8 - - ENE 1010,7 12 0,0
12.08.2020 18:00:00 23,4 19,8 15 8 - - NNE 1011,0 16 0,0
12.08.2020 17:00:00 23,5 19,9 9 5 - - N 1011,2 7 0,0
12.08.2020 16:00:00 23,9 19,2 8 4 - - NE 1011,7 7 0,0
12.08.2020 15:00:00 22,5 19,3 11 6 - - ENE 1011,7 4,0 0,0
12.08.2020 14:00:00 23,1 19,5 11 6 - - ENE 1012,0 4,0 0,0
12.08.2020 13:00:00 21,5 19,2 11 6 - - N 1012,4 3,0 0,0
12.08.2020 12:00:00 19,3 17,6 15 8 - - NNW 1012,5 3,0 0,0
12.08.2020 11:00:00 21,2 18,2 15 8 - - N 1012,4 3,0 0,0
12.08.2020 10:00:00 19,7 18,1 15 8 - - NNW 1012,5 2,5 0,0
12.08.2020 09:00:00 18,9 18,6 16 9 - - N 1012,4 1,7 0,0
12.08.2020 08:00:00 17,7 17,7 16 9 - - N 1012,3 1,5 0,0
12.08.2020 07:00:00 16,5 16,5 16 9 - - N 1013,0 0,4 0,0
12.08.2020 06:00:00 16,3 16,3 24 13 - - NNW 1012,5 0,9 0,0
12.08.2020 05:00:00 16,1 16,1 31 17 - - N 1012,6 0,4 0,0
12.08.2020 04:00:00 16,0 15,9 24 13 - - N 1013,3 1,0 0,0
12.08.2020 03:00:00 16,0 15,9 28 15 - - NNW 1013,5 1,2 0,0
12.08.2020 02:00:00 16,0 15,8 24 13 - - N 1013,5 0,8 0,0
12.08.2020 01:00:00 16,5 16,0 21 11 - - N 1013,9 9 0,0
12.08.2020 00:00:00 16,6 16,1 21 11 - - N 1014,3 12 0,0
11.08.2020 23:00:00 16,7 16,2 15 8 - - N 1014,6 11 0,0
11.08.2020 22:00:00 16,4 15,9 16 9 - - N 1014,9 7 0,0
11.08.2020 21:00:00 17,1 16,1 21 11 - - N 1014,5 10 0,0
11.08.2020 20:00:00 17,9 16,3 18 10 - - N 1014,4 11 0,0
11.08.2020 19:00:00 17,9 16,9 22 12 - - N 1014,2 9 0,0
11.08.2020 18:00:00 19,5 17,2 18 10 - - N 1014,4 7 0,0
11.08.2020 17:00:00 20,3 17,4 26 14 - - N 1014,6 10 0,0
11.08.2020 16:00:00 19,6 16,6 21 11 - - NNW 1014,9 7 0,0
11.08.2020 15:00:00 20,0 16,8 21 11 - - NNW 1015,1 8 0,0
11.08.2020 14:00:00 21,6 17,6 18 10 - - NNW 1015,1 10 0,0
11.08.2020 13:00:00 24,3 19,0 9 5 - - NW 1015,0 10 0,0
11.08.2020 12:00:00 23,0 18,9 11 6 - - NNW 1015,1 7 0,0
11.08.2020 11:00:00 21,8 18,6 11 6 - - NW 1015,1 5 0,0
11.08.2020 10:00:00 20,0 18,3 8 4 - - NNE 1015,5 5 0,2
11.08.2020 09:00:00 17,0 16,8 11 6 - - N 1015,5 1,5 0,0
11.08.2020 08:00:00 16,1 16,1 13 7 - - N 1015,2 0,7 0,0
11.08.2020 07:00:00 15,8 15,8 8 4 - - N 1015,4 1,1 0,0
11.08.2020 06:00:00 15,7 15,7 15 8 - - N 1015,2 1,2 0,0
11.08.2020 05:00:00 15,7 15,6 21 11 - - N 1014,9 0,6 0,0
11.08.2020 04:00:00 15,7 15,6 22 12 - - N 1015,1 1,9 0,0
11.08.2020 03:00:00 15,7 15,5 24 13 - - N 1015,5 1,0 0,0
11.08.2020 02:00:00 15,9 15,5 28 15 - - N 1015,4 4,9 0,0
11.08.2020 01:00:00 16,0 15,5 22 12 - - N 1015,5 6 0,0
11.08.2020 00:00:00 16,2 15,6 18 10 - - N 1016,1 8 0,0
10.08.2020 23:00:00 16,3 15,4 26 14 - - N 1016,0 10 0,0
10.08.2020 22:00:00 16,5 15,5 24 13 - - N 1015,9 9 0,0
10.08.2020 21:00:00 16,8 15,5 22 12 - - N 1015,5 11 0,0
10.08.2020 20:00:00 18,2 15,9 26 14 - - N 1015,3 13 0,0
10.08.2020 19:00:00 20,0 16,6 18 10 - - N 1014,9 17 0,0
10.08.2020 18:00:00 22,0 16,5 21 11 - - N 1014,5 21 0,0
10.08.2020 17:00:00 21,2 16,3 24 13 - - N 1014,7 10 0,0
10.08.2020 16:00:00 21,2 16,2 21 11 - - N 1015,1 10 0,0
10.08.2020 15:00:00 22,3 16,8 22 12 - - N 1014,5 10 0,0
10.08.2020 14:00:00 21,5 16,2 28 15 46 25 N 1014,7 10 0,0
10.08.2020 13:00:00 21,2 16,6 29 16 48 26 N 1015,0 10 0,0
10.08.2020 12:00:00 21,5 16,6 26 14 46 25 NNE 1014,7 10 0,0
10.08.2020 11:00:00 20,3 16,7 26 14 48 26 N 1014,5 10 0,0
10.08.2020 10:00:00 19,0 16,0 29 16 46 25 N 1014,7 10 0,0
10.08.2020 09:00:00 18,5 16,1 22 12 - - N 1014,8 10 0,0
10.08.2020 08:00:00 17,1 16,0 22 12 - - N 1015,1 10 0,0
10.08.2020 07:00:00 16,4 15,3 21 11 - - N 1015,1 10 0,0
10.08.2020 06:00:00 16,2 15,3 24 13 - - N 1014,9 10 0,0
10.08.2020 05:00:00 16,2 15,5 31 17 - - N 1014,8 12 0,2
10.08.2020 04:00:00 16,3 15,2 24 13 - - N 1016,0 16 0,0
10.08.2020 03:00:00 16,2 15,0 24 13 - - N 1016,0 19 0,0
10.08.2020 02:00:00 16,2 15,2 26 14 - - N 1016,8 15 0,0
10.08.2020 01:00:00 16,0 15,0 28 15 - - N 1016,7 13 0,0
10.08.2020 00:00:00 16,1 14,6 29 16 - - NNE 1016,7 10 0,0
09.08.2020 23:00:00 16,3 14,0 28 15 - - N 1017,1 23 0,0
09.08.2020 22:00:00 16,1 13,0 26 14 - - N 1017,3 25 0,0
09.08.2020 21:00:00 16,7 14,5 24 13 - - N 1017,3 17 0,0
09.08.2020 20:00:00 17,7 15,4 24 13 - - N 1017,3 14 0,0
09.08.2020 19:00:00 18,4 15,6 26 14 - - N 1017,3 15 0,0
09.08.2020 18:00:00 19,6 15,9 28 15 46 25 NNE 1017,4 18 0,0
09.08.2020 17:00:00 21,4 16,1 35 19 48 26 N 1017,7 21 0,0
09.08.2020 16:00:00 21,1 16,0 35 19 - - NNW 1018,0 10 0,0
09.08.2020 15:00:00 21,3 16,1 29 16 - - N 1018,2 24 0,0
09.08.2020 14:00:00 21,4 15,9 29 16 - - NNW 1018,3 24 0,0
09.08.2020 13:00:00 21,2 16,0 29 16 - - N 1018,5 26 0,0
09.08.2020 12:00:00 21,4 16,3 28 15 - - N 1018,7 10 0,0
09.08.2020 11:00:00 19,4 14,9 26 14 - - N 1019,1 26 0,0
09.08.2020 10:00:00 18,5 15,3 29 16 - - N 1019,4 10 0,0
09.08.2020 09:00:00 17,0 15,2 29 16 48 26 N 1019,3 19 0,0
09.08.2020 08:00:00 16,1 14,6 41 22 50 27 N 1019,1 18 0,0
09.08.2020 07:00:00 15,3 14,1 31 17 - - N 1019,6 18 0,0
09.08.2020 06:00:00 14,9 13,5 26 14 - - N 1019,4 20 0,0
09.08.2020 05:00:00 14,8 13,5 24 13 - - N 1019,6 21 0,0
09.08.2020 04:00:00 14,9 13,5 26 14 - - N 1019,7 23 0,0
09.08.2020 03:00:00 15,1 13,5 31 17 - - N 1019,8 23 0,0
09.08.2020 02:00:00 15,0 13,6 29 16 - - N 1020,2 23 0,0
09.08.2020 01:00:00 15,2 13,8 26 14 - - N 1020,4 10 0,0
09.08.2020 00:00:00 15,5 14,1 22 12 - - N 1020,5 10 0,0
08.08.2020 23:00:00 15,3 14,2 22 12 - - N 1020,7 17 0,0
08.08.2020 22:00:00 15,4 14,4 18 10 - - N 1020,9 16 0,0
08.08.2020 21:00:00 16,2 14,8 22 12 - - N 1020,8 18 0,0

tt = Température de l'air
td = dewpoint
ff = Vitesse du vent
fx = gusts
dd = Direction du vent
ppp = reduced air pressure
vv = visibility
rr = Quantités de précipitations

stations d'obs. à proximité